,,,PA_Meas_PMT16A,,PR_Meas_QMR101_102,,RH_Meas_QMH101,,SR_Meas_QMS101,,TA_Meas_QMH101,,GenWind,,GenWind,
date,time,status,PA,status,PR,status,RH,status,SR,status,TA,status,DirAvg,status,SpdAvg,
2014-09-19, 00:00:05,VALID,1010.69,VALID,0,INVALID,131.964,VALID,0,VALID,23.1874,VALID,6,VALID,0,
2014-09-19, 00:01:05,VALID,1010.68,VALID,0,INVALID,131.933,VALID,0,VALID,23.2069,VALID,6,VALID,0,
2014-09-19, 00:02:05,VALID,1010.69,VALID,0,INVALID,131.887,VALID,0,VALID,23.1874,VALID,6,VALID,0,
2014-09-19, 00:03:05,VALID,1010.65,VALID,0,INVALID,131.872,VALID,0,VALID,23.1874,VALID,6,VALID,0,
2014-09-19, 00:04:05,VALID,1010.64,VALID,0,INVALID,131.849,VALID,0.112112,VALID,23.1874,VALID,6,VALID,0,
2014-09-19, 00:05:05,VALID,1010.63,VALID,0,INVALID,131.804,VALID,0.112112,VALID,23.1662,VALID,6,VALID,0,
2014-09-19, 00:06:05,VALID,1010.62,VALID,0,INVALID,131.704,VALID,0,VALID,23.2069,VALID,6,VALID,0,
2014-09-19, 00:07:05,VALID,1010.62,VALID,0,INVALID,131.559,VALID,0.112112,VALID,23.2459,VALID,6,VALID,0,
2014-09-19, 00:08:05,VALID,1010.58,VALID,0,INVALID,131.3,VALID,0,VALID,23.2848,VALID,6,VALID,0,
2014-09-19, 00:09:05,VALID,1010.58,VALID,0,INVALID,131.117,VALID,0,VALID,23.2831,VALID,6,VALID,0,
2014-09-19, 00:10:05,VALID,1010.54,VALID,0,INVALID,130.957,VALID,0,VALID,23.3238,VALID,6,VALID,0,
2014-09-19, 00:11:05,VALID,1010.51,VALID,0,INVALID,130.866,VALID,0.112112,VALID,23.322,VALID,6,VALID,0,
2014-09-19, 00:12:05,VALID,1010.48,VALID,0,INVALID,130.858,VALID,0.112112,VALID,23.3433,VALID,6,VALID,0,
2014-09-19, 00:13:05,VALID,1010.46,VALID,0,INVALID,130.736,VALID,0,VALID,23.3628,VALID,6,VALID,0,
2014-09-19, 00:14:05,VALID,1010.46,VALID,0,INVALID,130.835,VALID,0.112112,VALID,23.322,VALID,6,VALID,0,
2014-09-19, 00:15:05,VALID,1010.46,VALID,0,INVALID,131.026,VALID,0,VALID,23.3433,VALID,6,VALID,0,
2014-09-19, 00:16:05,VALID,1010.46,VALID,0,INVALID,131.033,VALID,0.112112,VALID,23.3238,VALID,6,VALID,0,
2014-09-19, 00:17:05,VALID,1010.49,VALID,0,INVALID,131.064,VALID,0.112112,VALID,23.3026,VALID,6,VALID,0,
2014-09-19, 00:18:05,VALID,1010.52,VALID,0,INVALID,131.102,VALID,0.112112,VALID,23.2831,VALID,6,VALID,0,
2014-09-19, 00:19:05,VALID,1010.5,VALID,0,INVALID,131.186,VALID,0.112112,VALID,23.2636,VALID,6,VALID,0,
2014-09-19, 00:20:05,VALID,1010.5,VALID,0,INVALID,131.155,VALID,0,VALID,23.2848,VALID,6,VALID,0,
2014-09-19, 00:21:05,VALID,1010.54,VALID,0,INVALID,131.11,VALID,0,VALID,23.3043,VALID,6,VALID,0,
2014-09-19, 00:22:05,VALID,1010.51,VALID,0,INVALID,131.056,VALID,0.112112,VALID,23.2831,VALID,6,VALID,0,
2014-09-19, 00:23:05,VALID,1010.51,VALID,0,INVALID,131.056,VALID,0.112112,VALID,23.3043,VALID,6,VALID,0,
2014-09-19, 00:24:05,VALID,1010.47,VALID,0,INVALID,131.026,VALID,0,VALID,23.2831,VALID,6,VALID,0,
2014-09-19, 00:25:05,VALID,1010.48,VALID,0,INVALID,131.018,VALID,0.112112,VALID,23.2831,VALID,6,VALID,0,
2014-09-19, 00:26:05,VALID,1010.48,VALID,0,INVALID,130.995,VALID,0,VALID,23.2831,VALID,6,VALID,0,
2014-09-19, 00:27:05,VALID,1010.45,VALID,0,INVALID,130.98,VALID,0,VALID,23.3043,VALID,6,VALID,0,
2014-09-19, 00:28:05,VALID,1010.45,VALID,0,INVALID,130.972,VALID,0.112112,VALID,23.3026,VALID,6,VALID,0,
2014-09-19, 00:29:05,VALID,1010.44,VALID,0,INVALID,130.896,VALID,0,VALID,23.3238,VALID,6,VALID,0,
2014-09-19, 00:30:05,VALID,1010.44,VALID,0,INVALID,130.858,VALID,0,VALID,23.3238,VALID,6,VALID,0,
2014-09-19, 00:31:05,VALID,1010.46,VALID,0,INVALID,130.888,VALID,0,VALID,23.3238,VALID,6,VALID,0,
2014-09-19, 00:32:05,VALID,1010.43,VALID,0,INVALID,130.881,VALID,0,VALID,23.3026,VALID,6,VALID,0,
2014-09-19, 00:33:05,VALID,1010.43,VALID,0,INVALID,130.85,VALID,0,VALID,23.3026,VALID,6,VALID,0,
2014-09-19, 00:34:05,VALID,1010.42,VALID,0,INVALID,130.82,VALID,0,VALID,23.322,VALID,6,VALID,0,
2014-09-19, 00:35:05,VALID,1010.4,VALID,0,INVALID,130.827,VALID,0,VALID,23.3026,VALID,6,VALID,0,
2014-09-19, 00:36:05,VALID,1010.4,VALID,0,INVALID,130.896,VALID,0,VALID,23.3238,VALID,6,VALID,0,
2014-09-19, 00:37:05,VALID,1010.4,VALID,0,INVALID,130.888,VALID,0,VALID,23.3238,VALID,6,VALID,0,
2014-09-19, 00:38:05,VALID,1010.38,VALID,0,INVALID,130.904,VALID,0,VALID,23.3026,VALID,6,VALID,0,
2014-09-19, 00:39:05,VALID,1010.37,VALID,0,INVALID,130.927,VALID,0,VALID,23.3238,VALID,6,VALID,0,
2014-09-19, 00:40:05,VALID,1010.34,VALID,0,INVALID,130.988,VALID,0,VALID,23.2831,VALID,6,VALID,0,
2014-09-19, 00:41:05,VALID,1010.31,VALID,0,INVALID,131.049,VALID,0,VALID,23.2831,VALID,6,VALID,0,
2014-09-19, 00:42:05,VALID,1010.28,VALID,0,INVALID,131.11,VALID,0,VALID,23.2654,VALID,6,VALID,0,
2014-09-19, 00:43:05,VALID,1010.24,VALID,0,INVALID,131.163,VALID,0.112112,VALID,23.2848,VALID,6,VALID,0,
2014-09-19, 00:44:05,VALID,1010.23,VALID,0,INVALID,131.209,VALID,0,VALID,23.2654,VALID,6,VALID,0,
2014-09-19, 00:45:05,VALID,1010.17,VALID,0,INVALID,131.247,VALID,0,VALID,23.2441,VALID,6,VALID,0,
2014-09-19, 00:46:05,VALID,1010.17,VALID,0,INVALID,131.262,VALID,0,VALID,23.2459,VALID,6,VALID,0,
2014-09-19, 00:47:05,VALID,1010.14,VALID,0,INVALID,131.239,VALID,0,VALID,23.2654,VALID,6,VALID,0,
2014-09-19, 00:48:05,VALID,1010.16,VALID,0,INVALID,131.277,VALID,0,VALID,23.2051,VALID,6,VALID,0,
2014-09-19, 00:49:05,VALID,1010.15,VALID,0,INVALID,131.254,VALID,0,VALID,23.2459,VALID,6,VALID,0,
2014-09-19, 00:50:05,VALID,1010.16,VALID,0,INVALID,131.331,VALID,0,VALID,23.2264,VALID,6,VALID,0,
2014-09-19, 00:51:05,VALID,1010.15,VALID,0,INVALID,131.437,VALID,0,VALID,23.1874,VALID,6,VALID,0,
2014-09-19, 00:52:05,VALID,1010.18,VALID,0,INVALID,131.468,VALID,0,VALID,23.1662,VALID,6,VALID,0,
2014-09-19, 00:53:05,VALID,1010.18,VALID,0,INVALID,131.476,VALID,0,VALID,23.1679,VALID,6,VALID,0,
2014-09-19, 00:54:05,VALID,1010.21,VALID,0,INVALID,131.514,VALID,0,VALID,23.1485,VALID,6,VALID,0,
2014-09-19, 00:55:05,VALID,1010.25,VALID,0,INVALID,131.514,VALID,0,VALID,23.129,VALID,6,VALID,0,
2014-09-19, 00:56:05,VALID,1010.24,VALID,0,INVALID,131.491,VALID,0.112112,VALID,23.1077,VALID,6,VALID,0,
2014-09-19, 00:57:05,VALID,1010.24,VALID,0,INVALID,131.453,VALID,0,VALID,23.1095,VALID,6,VALID,0,
2014-09-19, 00:58:05,VALID,1010.26,VALID,0,INVALID,131.468,VALID,0.112112,VALID,23.1095,VALID,6,VALID,0,
2014-09-19, 00:59:05,VALID,1010.24,VALID,0,INVALID,131.369,VALID,0.112112,VALID,23.1095,VALID,6,VALID,0,
2014-09-19, 01:00:05,VALID,1010.25,VALID,0,INVALID,131.285,VALID,0,VALID,23.1077,VALID,6,VALID,0,
2014-09-19, 01:01:05,VALID,1010.22,VALID,0,INVALID,131.178,VALID,0,VALID,23.129,VALID,6,VALID,0,
2014-09-19, 01:02:05,VALID,1010.24,VALID,0,INVALID,131.102,VALID,0,VALID,23.129,VALID,6,VALID,0,
2014-09-19, 01:03:05,VALID,1010.23,VALID,0,INVALID,131.041,VALID,0,VALID,23.1077,VALID,6,VALID,0,
2014-09-19, 01:04:05,VALID,1010.18,VALID,0,INVALID,131.087,VALID,0,VALID,23.1095,VALID,6,VALID,0,
2014-09-19, 01:05:05,VALID,1010.19,VALID,0,INVALID,131.102,VALID,0,VALID,23.1095,VALID,6,VALID,0,
2014-09-19, 01:06:05,VALID,1010.18,VALID,0,INVALID,131.049,VALID,0,VALID,23.1095,VALID,6,VALID,0,
2014-09-19, 01:07:05,VALID,1010.21,VALID,0,INVALID,130.972,VALID,0,VALID,23.1095,VALID,6,VALID,0,
2014-09-19, 01:08:05,VALID,1010.2,VALID,0,INVALID,131.033,VALID,0,VALID,23.09,VALID,6,VALID,0,
2014-09-19, 01:09:05,VALID,1010.22,VALID,0,INVALID,131.125,VALID,0.112112,VALID,23.0511,VALID,6,VALID,0,
2014-09-19, 01:10:05,VALID,1010.21,VALID,0,INVALID,131.201,VALID,0,VALID,23.0511,VALID,6,VALID,0,
2014-09-19, 01:11:05,VALID,1010.21,VALID,0,INVALID,131.293,VALID,0,VALID,23.0103,VALID,6,VALID,0,
2014-09-19, 01:12:05,VALID,1010.19,VALID,0,INVALID,131.338,VALID,0,VALID,23.0121,VALID,6,VALID,0,
2014-09-19, 01:13:05,VALID,1010.19,VALID,0,INVALID,131.354,VALID,0,VALID,22.9519,VALID,6,VALID,0,
2014-09-19, 01:14:05,VALID,1010.19,VALID,0,INVALID,131.422,VALID,0,VALID,22.9324,VALID,6,VALID,0,
2014-09-19, 01:15:05,VALID,1010.16,VALID,0,INVALID,131.392,VALID,0,VALID,22.9536,VALID,6,VALID,0,
2014-09-19, 01:16:05,VALID,1010.16,VALID,0,INVALID,131.346,VALID,0,VALID,22.9536,VALID,6,VALID,0,
2014-09-19, 01:17:05,VALID,1010.16,VALID,0,INVALID,131.315,VALID,0,VALID,22.9342,VALID,6,VALID,0,
2014-09-19, 01:18:05,VALID,1010.15,VALID,0,INVALID,131.3,VALID,0,VALID,22.9129,VALID,6,VALID,0,
2014-09-19, 01:19:05,VALID,1010.14,VALID,0,INVALID,131.224,VALID,0,VALID,22.9342,VALID,6,VALID,0,
2014-09-19, 01:20:05,VALID,1010.14,VALID,0,INVALID,131.201,VALID,0,VALID,22.9342,VALID,6,VALID,0,
2014-09-19, 01:21:05,VALID,1010.16,VALID,0,INVALID,131.171,VALID,0,VALID,22.9342,VALID,6,VALID,0,
2014-09-19, 01:22:05,VALID,1010.16,VALID,0,INVALID,131.163,VALID,0,VALID,22.9342,VALID,6,VALID,0,
2014-09-19, 01:23:05,VALID,1010.14,VALID,0,INVALID,131.186,VALID,0,VALID,22.8935,VALID,6,VALID,0,
2014-09-19, 01:24:05,VALID,1010.13,VALID,0,INVALID,131.178,VALID,0,VALID,22.8952,VALID,6,VALID,0,
2014-09-19, 01:25:05,VALID,1010.16,VALID,0,INVALID,131.201,VALID,0,VALID,22.8952,VALID,6,VALID,0,
2014-09-19, 01:26:05,VALID,1010.16,VALID,0,INVALID,131.216,VALID,0.112112,VALID,22.8757,VALID,6,VALID,0,
2014-09-19, 01:27:05,VALID,1010.17,VALID,0,INVALID,131.216,VALID,0,VALID,22.8562,VALID,6,VALID,0,
2014-09-19, 01:28:05,VALID,1010.18,VALID,0,INVALID,131.209,VALID,0,VALID,22.8562,VALID,6,VALID,0,
2014-09-19, 01:29:05,VALID,1010.16,VALID,0,INVALID,131.216,VALID,0,VALID,22.8562,VALID,6,VALID,0,
2014-09-19, 01:30:05,VALID,1010.22,VALID,0,INVALID,131.201,VALID,0,VALID,22.8368,VALID,6,VALID,0,
2014-09-19, 01:31:05,VALID,1010.18,VALID,0,INVALID,131.171,VALID,0,VALID,22.8155,VALID,6,VALID,0,
2014-09-19, 01:32:05,VALID,1010.2,VALID,0,INVALID,131.155,VALID,0,VALID,22.8368,VALID,6,VALID,0,
2014-09-19, 01:33:05,VALID,1010.22,VALID,0,INVALID,131.11,VALID,0,VALID,22.8173,VALID,6,VALID,0,
2014-09-19, 01:34:05,VALID,1010.21,VALID,0,INVALID,131.094,VALID,0,VALID,22.8173,VALID,6,VALID,0,
2014-09-19, 01:35:05,VALID,1010.23,VALID,0,INVALID,131.079,VALID,0.112112,VALID,22.7961,VALID,6,VALID,0,
2014-09-19, 01:36:05,VALID,1010.24,VALID,0,INVALID,131.102,VALID,0,VALID,22.8173,VALID,6,VALID,0,
2014-09-19, 01:37:05,VALID,1010.24,VALID,0,INVALID,131.132,VALID,0,VALID,22.7978,VALID,6,VALID,0,
2014-09-19, 01:38:05,VALID,1010.24,VALID,0,INVALID,131.11,VALID,0,VALID,22.7571,VALID,6,VALID,0,
2014-09-19, 01:39:05,VALID,1010.25,VALID,0,INVALID,131.079,VALID,0.112112,VALID,22.7571,VALID,6,VALID,0,
2014-09-19, 01:40:05,VALID,1010.25,VALID,0,INVALID,131.033,VALID,0,VALID,22.7783,VALID,6,VALID,0,
2014-09-19, 01:41:05,VALID,1010.23,VALID,0,INVALID,131.041,VALID,0,VALID,22.7783,VALID,6,VALID,0,
2014-09-19, 01:42:05,VALID,1010.21,VALID,0,INVALID,131.064,VALID,0,VALID,22.7376,VALID,6,VALID,0,
2014-09-19, 01:43:05,VALID,1010.21,VALID,0,INVALID,131.041,VALID,0.112112,VALID,22.7376,VALID,6,VALID,0,
2014-09-19, 01:44:05,VALID,1010.2,VALID,0,INVALID,131.018,VALID,0,VALID,22.7182,VALID,6,VALID,0,
2014-09-19, 01:45:05,VALID,1010.17,VALID,0,INVALID,130.972,VALID,0,VALID,22.7394,VALID,6,VALID,0,
2014-09-19, 01:46:05,VALID,1010.17,VALID,0,INVALID,130.965,VALID,0,VALID,22.7199,VALID,6,VALID,0,
2014-09-19, 01:47:05,VALID,1010.17,VALID,0,INVALID,130.972,VALID,0,VALID,22.7199,VALID,6,VALID,0,
2014-09-19, 01:48:05,VALID,1010.15,VALID,0,INVALID,130.957,VALID,0,VALID,22.7004,VALID,6,VALID,0,
2014-09-19, 01:49:05,VALID,1010.12,VALID,0,INVALID,130.957,VALID,0,VALID,22.7199,VALID,6,VALID,0,
2014-09-19, 01:50:05,VALID,1010.13,VALID,0,INVALID,130.949,VALID,0.112112,VALID,22.7004,VALID,6,VALID,0,
2014-09-19, 01:51:05,VALID,1010.11,VALID,0,INVALID,130.934,VALID,0,VALID,22.7004,VALID,6,VALID,0,
2014-09-19, 01:52:05,VALID,1010.08,VALID,0,INVALID,130.919,VALID,0,VALID,22.7004,VALID,6,VALID,0,
2014-09-19, 01:53:05,VALID,1010.04,VALID,0,INVALID,130.896,VALID,0.112112,VALID,22.7004,VALID,6,VALID,0,
2014-09-19, 01:54:05,VALID,1010.01,VALID,0,INVALID,130.881,VALID,0,VALID,22.7004,VALID,6,VALID,0,
2014-09-19, 01:55:05,VALID,1010.01,VALID,0,INVALID,130.843,VALID,0,VALID,22.7004,VALID,6,VALID,0,
2014-09-19, 01:56:05,VALID,1010.03,VALID,0,INVALID,130.805,VALID,0,VALID,22.6597,VALID,6,VALID,0,
2014-09-19, 01:57:05,VALID,1010,VALID,0,INVALID,130.797,VALID,0,VALID,22.6809,VALID,6,VALID,0,
2014-09-19, 01:58:05,VALID,1010.02,VALID,0,INVALID,130.82,VALID,0,VALID,22.6614,VALID,6,VALID,0,
2014-09-19, 01:59:05,VALID,1010.05,VALID,0,INVALID,130.858,VALID,0,VALID,22.642,VALID,6,VALID,0,
2014-09-19, 02:00:05,VALID,1010.06,VALID,0,INVALID,130.888,VALID,0,VALID,22.6013,VALID,6,VALID,0,
2014-09-19, 02:01:05,VALID,1010.05,VALID,0,INVALID,130.896,VALID,0,VALID,22.603,VALID,6,VALID,0,
2014-09-19, 02:02:05,VALID,1010.08,VALID,0,INVALID,130.919,VALID,0,VALID,22.603,VALID,6,VALID,0,
2014-09-19, 02:03:05,VALID,1010.08,VALID,0,INVALID,130.911,VALID,0,VALID,22.5818,VALID,6,VALID,0,
2014-09-19, 02:04:05,VALID,1010.05,VALID,0,INVALID,130.911,VALID,0,VALID,22.5835,VALID,6,VALID,0,
2014-09-19, 02:05:05,VALID,1010.05,VALID,0,INVALID,130.866,VALID,0.112112,VALID,22.5835,VALID,6,VALID,0,
2014-09-19, 02:06:05,VALID,1010.04,VALID,0,INVALID,130.759,VALID,0,VALID,22.5835,VALID,6,VALID,0,
2014-09-19, 02:07:05,VALID,1010.05,VALID,0,INVALID,130.721,VALID,0.112112,VALID,22.5835,VALID,6,VALID,0,
2014-09-19, 02:08:05,VALID,1010.03,VALID,0,INVALID,130.698,VALID,0,VALID,22.603,VALID,6,VALID,0,
2014-09-19, 02:09:05,VALID,1010.01,VALID,0,INVALID,130.637,VALID,0,VALID,22.5835,VALID,6,VALID,0,
2014-09-19, 02:10:05,VALID,1009.99,VALID,0,INVALID,130.606,VALID,0,VALID,22.5835,VALID,6,VALID,0,
2014-09-19, 02:11:05,VALID,1009.98,VALID,0,INVALID,130.576,VALID,0,VALID,22.5835,VALID,6,VALID,0,
2014-09-19, 02:12:05,VALID,1009.97,VALID,0,INVALID,130.553,VALID,0,VALID,22.5835,VALID,6,VALID,0,
2014-09-19, 02:13:04,VALID,1009.99,VALID,0,INVALID,130.5,VALID,0,VALID,22.5835,VALID,6,VALID,0,
2014-09-19, 02:14:04,VALID,1009.97,VALID,0,INVALID,130.378,VALID,0,VALID,22.603,VALID,6,VALID,0,
2014-09-19, 02:15:04,VALID,1009.98,VALID,0,INVALID,130.339,VALID,0,VALID,22.603,VALID,6,VALID,0,
2014-09-19, 02:16:04,VALID,1009.93,VALID,0,INVALID,130.339,VALID,0.112112,VALID,22.5818,VALID,6,VALID,0,
2014-09-19, 02:17:04,VALID,1009.93,VALID,0,INVALID,130.339,VALID,0,VALID,22.603,VALID,6,VALID,0,
2014-09-19, 02:18:04,VALID,1009.92,VALID,0,INVALID,130.347,VALID,0,VALID,22.5835,VALID,6,VALID,0,
2014-09-19, 02:19:04,VALID,1009.89,VALID,0,INVALID,130.355,VALID,0.112112,VALID,22.5835,VALID,6,VALID,0,
2014-09-19, 02:20:04,VALID,1009.91,VALID,0,INVALID,130.339,VALID,0,VALID,22.5429,VALID,6,VALID,0,
2014-09-19, 02:21:04,VALID,1009.92,VALID,0,INVALID,130.324,VALID,0,VALID,22.564,VALID,6,VALID,0,
2014-09-19, 02:22:04,VALID,1009.96,VALID,0,INVALID,130.294,VALID,0,VALID,22.5429,VALID,6,VALID,0,
2014-09-19, 02:23:04,VALID,1009.94,VALID,0,INVALID,130.286,VALID,0,VALID,22.564,VALID,6,VALID,0,
2014-09-19, 02:24:04,VALID,1009.94,VALID,0,INVALID,130.233,VALID,0.112112,VALID,22.5835,VALID,6,VALID,0,
2014-09-19, 02:25:04,VALID,1009.99,VALID,0,INVALID,130.141,VALID,0,VALID,22.5835,VALID,6,VALID,0,
2014-09-19, 02:26:04,VALID,1010.01,VALID,0,INVALID,130.164,VALID,0.112112,VALID,22.5835,VALID,6,VALID,0,
2014-09-19, 02:27:04,VALID,1010.01,VALID,0,INVALID,130.187,VALID,0.112112,VALID,22.564,VALID,6,VALID,0,
2014-09-19, 02:28:04,VALID,1009.99,VALID,0,INVALID,130.179,VALID,0.112112,VALID,22.5429,VALID,6,VALID,0,
2014-09-19, 02:29:04,VALID,1010,VALID,0,INVALID,130.179,VALID,0,VALID,22.564,VALID,6,VALID,0,
2014-09-19, 02:30:04,VALID,1009.97,VALID,0,INVALID,130.202,VALID,0,VALID,22.564,VALID,6,VALID,0,
2014-09-19, 02:31:04,VALID,1009.97,VALID,0,INVALID,130.217,VALID,0,VALID,22.564,VALID,6,VALID,0,
2014-09-19, 02:32:04,VALID,1009.97,VALID,0,INVALID,130.21,VALID,0,VALID,22.5835,VALID,6,VALID,0,
2014-09-19, 02:33:04,VALID,1009.97,VALID,0,INVALID,130.21,VALID,0,VALID,22.5835,VALID,6,VALID,0,
2014-09-19, 02:34:04,VALID,1009.96,VALID,0,INVALID,130.271,VALID,0,VALID,22.564,VALID,6,VALID,0,
2014-09-19, 02:35:04,VALID,1009.93,VALID,0,INVALID,130.355,VALID,0.112112,VALID,22.5429,VALID,6,VALID,0,
2014-09-19, 02:36:04,VALID,1009.95,VALID,0,INVALID,130.4,VALID,0,VALID,22.564,VALID,6,VALID,0,
2014-09-19, 02:37:04,VALID,1009.94,VALID,0,INVALID,130.469,VALID,0,VALID,22.564,VALID,6,VALID,0,
2014-09-19, 02:38:04,VALID,1009.93,VALID,0,INVALID,130.515,VALID,0,VALID,22.5429,VALID,6,VALID,0,
2014-09-19, 02:39:04,VALID,1009.9,VALID,0,INVALID,130.644,VALID,0,VALID,22.5446,VALID,6,VALID,0,
2014-09-19, 02:40:04,VALID,1009.91,VALID,0,INVALID,130.713,VALID,0,VALID,22.5446,VALID,6,VALID,0,
2014-09-19, 02:41:04,VALID,1009.92,VALID,0,INVALID,130.751,VALID,0,VALID,22.5039,VALID,6,VALID,0,
2014-09-19, 02:42:04,VALID,1009.92,VALID,0,INVALID,130.827,VALID,0,VALID,22.5251,VALID,6,VALID,0,
2014-09-19, 02:43:04,VALID,1009.92,VALID,0,INVALID,130.858,VALID,0,VALID,22.5251,VALID,6,VALID,0,
2014-09-19, 02:44:04,VALID,1009.94,VALID,0,INVALID,130.888,VALID,0.112112,VALID,22.5251,VALID,6,VALID,0,
2014-09-19, 02:45:04,VALID,1009.92,VALID,0,INVALID,130.866,VALID,0,VALID,22.5251,VALID,6,VALID,0,
2014-09-19, 02:46:04,VALID,1009.96,VALID,0,INVALID,130.805,VALID,0,VALID,22.5446,VALID,6,VALID,0,
2014-09-19, 02:47:04,VALID,1009.97,VALID,0,INVALID,130.759,VALID,0,VALID,22.5446,VALID,6,VALID,0,
2014-09-19, 02:48:04,VALID,1009.98,VALID,0,INVALID,130.82,VALID,0,VALID,22.5446,VALID,6,VALID,0,
2014-09-19, 02:49:04,VALID,1009.99,VALID,0,INVALID,130.843,VALID,0,VALID,22.5446,VALID,6,VALID,0,
2014-09-19, 02:50:04,VALID,1010.02,VALID,0,INVALID,130.911,VALID,0,VALID,22.564,VALID,6,VALID,0,
2014-09-19, 02:51:04,VALID,1010.01,VALID,0,INVALID,130.942,VALID,0.112112,VALID,22.5835,VALID,6,VALID,0,
2014-09-19, 02:52:04,VALID,1010,VALID,0,INVALID,130.972,VALID,0.112112,VALID,22.5835,VALID,6,VALID,0,
2014-09-19, 02:53:04,VALID,1010,VALID,0,INVALID,131.018,VALID,0.112112,VALID,22.5835,VALID,6,VALID,0,
2014-09-19, 02:54:04,VALID,1010.03,VALID,0,INVALID,131.14,VALID,0,VALID,22.564,VALID,6,VALID,0,
2014-09-19, 02:55:04,VALID,1010,VALID,0,INVALID,131.239,VALID,0,VALID,22.5429,VALID,6,VALID,0,
2014-09-19, 02:56:04,VALID,1009.98,VALID,0,INVALID,131.361,VALID,0.112112,VALID,22.5623,VALID,6,VALID,0,
2014-09-19, 02:57:04,VALID,1009.99,VALID,0,INVALID,131.476,VALID,0.112112,VALID,22.564,VALID,6,VALID,0,
2014-09-19, 02:58:04,VALID,1009.96,VALID,0,INVALID,131.529,VALID,0,VALID,22.564,VALID,6,VALID,0,
2014-09-19, 02:59:04,VALID,1009.97,VALID,0,INVALID,131.666,VALID,0.112112,VALID,22.5623,VALID,6,VALID,0,
2014-09-19, 03:00:04,VALID,1009.97,VALID,0,INVALID,131.743,VALID,0.112112,VALID,22.5429,VALID,6,VALID,0,
2014-09-19, 03:01:04,VALID,1009.99,VALID,0,INVALID,131.819,VALID,0.112112,VALID,22.5429,VALID,6,VALID,0,
2014-09-19, 03:02:04,VALID,1009.99,VALID,0,INVALID,131.91,VALID,0.112112,VALID,22.5429,VALID,6,VALID,0,
2014-09-19, 03:03:04,VALID,1009.99,VALID,0,INVALID,132.017,VALID,0.112112,VALID,22.5234,VALID,6,VALID,0,
2014-09-19, 03:04:04,VALID,1009.99,VALID,0,INVALID,132.078,VALID,0.112112,VALID,22.5234,VALID,6,VALID,0,
2014-09-19, 03:05:04,VALID,1010,VALID,0,INVALID,132.139,VALID,0.112112,VALID,22.5234,VALID,6,VALID,0,
2014-09-19, 03:06:04,VALID,1009.98,VALID,0,INVALID,132.215,VALID,0.112112,VALID,22.5234,VALID,6,VALID,0,
2014-09-19, 03:07:04,VALID,1009.97,VALID,0,INVALID,132.276,VALID,0.112112,VALID,22.5039,VALID,6,VALID,0,
2014-09-19, 03:08:04,VALID,1009.99,VALID,0,INVALID,132.307,VALID,0,VALID,22.5251,VALID,6,VALID,0,
2014-09-19, 03:09:04,VALID,1009.95,VALID,0,INVALID,132.36,VALID,0.112112,VALID,22.5039,VALID,6,VALID,0,
2014-09-19, 03:10:04,VALID,1009.95,VALID,0,INVALID,132.421,VALID,0.112112,VALID,22.5039,VALID,6,VALID,0,
2014-09-19, 03:11:04,VALID,1009.95,VALID,0,INVALID,132.475,VALID,0.112112,VALID,22.5039,VALID,6,VALID,0,
2014-09-19, 03:12:04,VALID,1009.95,VALID,0,INVALID,132.528,VALID,0.112112,VALID,22.4844,VALID,6,VALID,0,
2014-09-19, 03:13:04,VALID,1009.94,VALID,0,INVALID,132.551,VALID,0.112112,VALID,22.465,VALID,6,VALID,0,
2014-09-19, 03:14:04,VALID,1009.91,VALID,0,INVALID,132.627,VALID,0.112112,VALID,22.465,VALID,6,VALID,0,
2014-09-19, 03:15:04,VALID,1009.89,VALID,0,INVALID,132.711,VALID,0.112112,VALID,22.4861,VALID,6,VALID,0,
2014-09-19, 03:16:04,VALID,1009.89,VALID,0,INVALID,132.688,VALID,0,VALID,22.4861,VALID,6,VALID,0,
2014-09-19, 03:17:04,VALID,1009.89,VALID,0,INVALID,132.688,VALID,0.112112,VALID,22.4861,VALID,6,VALID,0,
2014-09-19, 03:18:04,VALID,1009.89,VALID,0,INVALID,132.673,VALID,0.112112,VALID,22.4844,VALID,6,VALID,0,
2014-09-19, 03:19:04,VALID,1009.86,VALID,0,INVALID,132.665,VALID,0,VALID,22.465,VALID,6,VALID,0,
2014-09-19, 03:20:04,VALID,1009.88,VALID,0,INVALID,132.726,VALID,0.112112,VALID,22.465,VALID,6,VALID,0,
2014-09-19, 03:21:04,VALID,1009.88,VALID,0,INVALID,132.78,VALID,0.112112,VALID,22.4455,VALID,6,VALID,0,
2014-09-19, 03:22:04,VALID,1009.86,VALID,0,INVALID,132.802,VALID,0.112112,VALID,22.4455,VALID,6,VALID,0,
2014-09-19, 03:23:04,VALID,1009.91,VALID,0,INVALID,132.825,VALID,0,VALID,22.4472,VALID,6,VALID,0,
2014-09-19, 03:24:04,VALID,1009.91,VALID,0,INVALID,132.863,VALID,0.112112,VALID,22.4472,VALID,6,VALID,0,
2014-09-19, 03:25:04,VALID,1009.94,VALID,0,INVALID,132.917,VALID,0.112112,VALID,22.4472,VALID,6,VALID,0,
2014-09-19, 03:26:04,VALID,1009.93,VALID,0,INVALID,132.925,VALID,0,VALID,22.4277,VALID,6,VALID,0,
2014-09-19, 03:27:04,VALID,1009.92,VALID,0,INVALID,132.947,VALID,0.112112,VALID,22.426,VALID,6,VALID,0,
2014-09-19, 03:28:04,VALID,1009.99,VALID,0,INVALID,132.955,VALID,0.112112,VALID,22.4277,VALID,6,VALID,0,
2014-09-19, 03:29:04,VALID,1010.01,VALID,0,INVALID,132.94,VALID,0,VALID,22.4472,VALID,6,VALID,0,
2014-09-19, 03:30:04,VALID,1010.06,VALID,0,INVALID,132.886,VALID,0.112112,VALID,22.426,VALID,6,VALID,0,
2014-09-19, 03:31:04,VALID,1010.06,VALID,0,INVALID,132.848,VALID,0.112112,VALID,22.4472,VALID,6,VALID,0,
2014-09-19, 03:32:04,VALID,1010.09,VALID,0,INVALID,132.863,VALID,0.112112,VALID,22.426,VALID,6,VALID,0,
2014-09-19, 03:33:04,VALID,1010.07,VALID,0,INVALID,132.833,VALID,0.112112,VALID,22.4277,VALID,6,VALID,0,
2014-09-19, 03:34:04,VALID,1010.07,VALID,0,INVALID,132.833,VALID,0.112112,VALID,22.426,VALID,6,VALID,0,
2014-09-19, 03:35:04,VALID,1010.11,VALID,0,INVALID,132.879,VALID,0.112112,VALID,22.4277,VALID,6,VALID,0,
2014-09-19, 03:36:04,VALID,1010.09,VALID,0,INVALID,132.886,VALID,0.112112,VALID,22.4277,VALID,6,VALID,0,
2014-09-19, 03:37:04,VALID,1010.08,VALID,0,INVALID,132.894,VALID,0.112112,VALID,22.4082,VALID,6,VALID,0,
2014-09-19, 03:38:04,VALID,1010.09,VALID,0,INVALID,132.886,VALID,0.112112,VALID,22.4277,VALID,6,VALID,0,
2014-09-19, 03:39:04,VALID,1010.11,VALID,0,INVALID,132.871,VALID,0.112112,VALID,22.387,VALID,6,VALID,0,
2014-09-19, 03:40:04,VALID,1010.13,VALID,0,INVALID,132.909,VALID,0.112112,VALID,22.387,VALID,6,VALID,0,
2014-09-19, 03:41:04,VALID,1010.13,VALID,0,INVALID,132.879,VALID,0.112112,VALID,22.4065,VALID,6,VALID,0,
2014-09-19, 03:42:04,VALID,1010.13,VALID,0,INVALID,132.909,VALID,0.112112,VALID,22.4065,VALID,6,VALID,0,
2014-09-19, 03:43:04,VALID,1010.12,VALID,0,INVALID,132.925,VALID,0.112112,VALID,22.387,VALID,6,VALID,0,
2014-09-19, 03:44:04,VALID,1010.11,VALID,0,INVALID,132.917,VALID,0.112112,VALID,22.387,VALID,6,VALID,0,
2014-09-19, 03:45:04,VALID,1010.12,VALID,0,INVALID,132.894,VALID,0.112112,VALID,22.4472,VALID,6,VALID,0,
2014-09-19, 03:46:04,VALID,1010.14,VALID,0,INVALID,132.932,VALID,0,VALID,22.4082,VALID,6,VALID,0,
2014-09-19, 03:47:04,VALID,1010.17,VALID,0,INVALID,132.947,VALID,0,VALID,22.387,VALID,6,VALID,0,
2014-09-19, 03:48:04,VALID,1010.17,VALID,0,INVALID,132.978,VALID,0,VALID,22.4082,VALID,6,VALID,0,
2014-09-19, 03:49:04,VALID,1010.22,VALID,0,INVALID,133.001,VALID,0.112112,VALID,22.387,VALID,6,VALID,0,
2014-09-19, 03:50:04,VALID,1010.23,VALID,0,INVALID,133.001,VALID,0.112112,VALID,22.387,VALID,6,VALID,0,
2014-09-19, 03:51:04,VALID,1010.24,VALID,0,INVALID,133.008,VALID,0.112112,VALID,22.4082,VALID,6,VALID,0,
2014-09-19, 03:52:04,VALID,1010.29,VALID,0,INVALID,133.016,VALID,0.112112,VALID,22.387,VALID,6,VALID,0,
2014-09-19, 03:53:04,VALID,1010.27,VALID,0,INVALID,132.986,VALID,0.112112,VALID,22.3676,VALID,6,VALID,0,
2014-09-19, 03:54:04,VALID,1010.3,VALID,0,INVALID,133.031,VALID,0,VALID,22.3887,VALID,6,VALID,0,